Starlink 32418

operational
NORAD ID: 62429 Int'l Des: 2024-249 Owner: SPXS Country: US Constellation: starlink
LEOCIRCULAR

关于 Starlink 32418

正在加载描述...

实时位置

正在加载3D地球...

即将过境

高度历史

Altitude vs Time

uPlot chart will show altitude changes over time

两行轨道根数

1 62429U 24249W 25305.72447835 .00037237 00000-0 13543-2 0 9999
2 62429 43.0012 316.7004 0000575 7.6285 352.4575 15.27618424 48240
Epoch: Nov 1, 2025 • Age: 26 hours

当前状态

高度 482.3 km
速度 7.63 km/s
星下点 20.29°N, 137.92°E
发射日期 Dec 23, 2024
运行时间 0.8 years
类型 internet

技术详情

分类 Payload
质量 730.00 kg
干质量 700.00 kg
总质量 730.00 kg
长度 0.30 m
直径 4.10 m
跨度 29.00 m
形状 Box + pan
制造商 SPXS
平台类型 Starlink V2M
阶段状态 In Orbit
所有者/国家 SPXS/US

大型星座

Loading constellations...